^^
Your Local Weather - Clay, NY Station Historical Data
Daily Summary for February 3, 2017 Units:  English    Metric   Both
« Previous Day
Next Day »
Daily Weekly Monthly Yearly Custom
  High: Low: Average:
Temperature: 24.7 °F 17.9 °F 20.6 °F
Dew Point: 12.8 °F 6.0 °F 8.5 °F
Humidity: 79% 47% 59%
Wind Speed: 7.0mph 2.0mph 4.9mph
Wind Gust: 16.0mph - -
Wind- - WSW
Pressure: 30.20 in 30.10 in -
Precipitation: 0.00 in    
Historical Graphs
 
 
Tabular Data for February 3, 2017
Time Temperature Dew Point Pressure Wind Wind Speed Wind Gust Humidity Rainfall Rate (Hourly) solar
00:02 20.7 °F 8.2 °F 30.17 in West 4.0 mph 8.0 mph 58% 0.00 in 0 W/m2
00:08 20.8 °F 8.7 °F 30.17 in WSW 5.0 mph 8.0 mph 59% 0.00 in 0 W/m2
00:13 20.6 °F 8.5 °F 30.17 in SSW 3.0 mph 6.0 mph 59% 0.00 in 0 W/m2
00:20 20.8 °F 8.7 °F 30.17 in WSW 4.0 mph 4.0 mph 59% 0.00 in 0 W/m2
00:22 20.8 °F 8.7 °F 30.17 in WSW 4.0 mph 4.0 mph 59% 0.00 in 0 W/m2
00:28 20.8 °F 8.7 °F 30.17 in West 3.0 mph 4.0 mph 59% 0.00 in 0 W/m2
00:33 20.9 °F 8.4 °F 30.17 in West 4.0 mph 4.0 mph 58% 0.00 in 0 W/m2
00:39 20.8 °F 8.3 °F 30.17 in SSW 4.0 mph 4.0 mph 58% 0.00 in 0 W/m2
00:46 20.7 °F 8.2 °F 30.16 in SW 3.0 mph 4.0 mph 58% 0.00 in 0 W/m2
00:52 20.6 °F 8.5 °F 30.17 in SSW 3.0 mph 4.0 mph 59% 0.00 in 0 W/m2
00:58 20.6 °F 8.5 °F 30.16 in West 3.0 mph 4.0 mph 59% 0.00 in 0 W/m2
01:04 20.5 °F 8.4 °F 30.16 in SW 4.0 mph 4.0 mph 59% 0.00 in 0 W/m2
01:09 20.4 °F 8.3 °F 30.15 in SW 4.0 mph 4.0 mph 59% 0.00 in 0 W/m2
01:15 20.1 °F 8.1 °F 30.15 in WSW 3.0 mph 4.0 mph 59% 0.00 in 0 W/m2
01:22 20.1 °F 8.4 °F 30.15 in SW 3.0 mph 4.0 mph 60% 0.00 in 0 W/m2
01:28 20.2 °F 8.5 °F 30.15 in West 4.0 mph 7.0 mph 60% 0.00 in 0 W/m2
01:34 20.4 °F 8.7 °F 30.15 in WSW 4.0 mph 6.0 mph 60% 0.00 in 0 W/m2
01:40 20.6 °F 8.9 °F 30.15 in WSW 4.0 mph 5.0 mph 60% 0.00 in 0 W/m2
01:45 20.7 °F 9.0 °F 30.15 in SW 4.0 mph 5.0 mph 60% 0.00 in 0 W/m2
01:52 20.8 °F 8.7 °F 30.16 in SW 4.0 mph 4.0 mph 59% 0.00 in 0 W/m2
01:58 20.9 °F 8.8 °F 30.15 in WSW 5.0 mph 7.0 mph 59% 0.00 in 0 W/m2
02:04 20.8 °F 8.7 °F 30.16 in SW 5.0 mph 9.0 mph 59% 0.00 in 0 W/m2
02:10 20.8 °F 8.7 °F 30.16 in SW 5.0 mph 5.0 mph 59% 0.00 in 0 W/m2
02:15 20.8 °F 8.7 °F 30.16 in WSW 5.0 mph 6.0 mph 59% 0.00 in 0 W/m2
02:22 20.6 °F 8.5 °F 30.16 in West 4.0 mph 5.0 mph 59% 0.00 in 0 W/m2
02:28 20.4 °F 8.7 °F 30.16 in WSW 3.0 mph 10.0 mph 60% 0.00 in 0 W/m2
02:34 20.3 °F 8.6 °F 30.16 in SW 4.0 mph 5.0 mph 60% 0.00 in 0 W/m2
02:40 20.2 °F 8.5 °F 30.16 in WSW 4.0 mph 4.0 mph 60% 0.00 in 0 W/m2
02:45 20.1 °F 8.8 °F 30.16 in West 3.0 mph 4.0 mph 61% 0.00 in 0 W/m2
02:52 20.0 °F 8.7 °F 30.15 in WSW 4.0 mph 5.0 mph 61% 0.00 in 0 W/m2
02:58 20.2 °F 8.9 °F 30.15 in West 4.0 mph 9.0 mph 61% 0.00 in 0 W/m2
03:03 20.1 °F 8.8 °F 30.15 in West 3.0 mph 6.0 mph 61% 0.00 in 0 W/m2
03:10 20.0 °F 8.7 °F 30.15 in WSW 4.0 mph 4.0 mph 61% 0.00 in 0 W/m2
03:15 20.1 °F 8.8 °F 30.15 in West 5.0 mph 7.0 mph 61% 0.00 in 0 W/m2
03:22 20.1 °F 8.8 °F 30.15 in WSW 4.0 mph 8.0 mph 61% 0.00 in 0 W/m2
03:28 20.1 °F 8.8 °F 30.14 in SSW 5.0 mph 8.0 mph 61% 0.00 in 0 W/m2
03:34 20.0 °F 9.1 °F 30.15 in WSW 5.0 mph 10.0 mph 62% 0.00 in 0 W/m2
03:39 19.9 °F 9.0 °F 30.14 in SW 4.0 mph 6.0 mph 62% 0.00 in 0 W/m2
03:45 19.8 °F 8.9 °F 30.14 in SW 4.0 mph 6.0 mph 62% 0.00 in 0 W/m2
03:52 19.7 °F 8.8 °F 30.14 in WSW 4.0 mph 4.0 mph 62% 0.00 in 0 W/m2
03:58 19.8 °F 9.2 °F 30.15 in WSW 4.0 mph 6.0 mph 63% 0.00 in 0 W/m2
04:03 19.8 °F 9.2 °F 30.15 in WSW 4.0 mph 4.0 mph 63% 0.00 in 0 W/m2
04:10 19.9 °F 9.3 °F 30.15 in SW 4.0 mph 5.0 mph 63% 0.00 in 0 W/m2
04:15 20.0 °F 9.4 °F 30.15 in WSW 5.0 mph 8.0 mph 63% 0.00 in 0 W/m2
04:22 20.0 °F 9.4 °F 30.15 in SW 5.0 mph 10.0 mph 63% 0.00 in 0 W/m2
04:28 20.1 °F 9.5 °F 30.16 in WSW 5.0 mph 10.0 mph 63% 0.00 in 0 W/m2
04:34 20.0 °F 9.4 °F 30.15 in West 5.0 mph 10.0 mph 63% 0.00 in 0 W/m2
04:39 19.9 °F 9.3 °F 30.15 in West 5.0 mph 5.0 mph 63% 0.00 in 0 W/m2
04:46 20.0 °F 9.4 °F 30.15 in WSW 5.0 mph 7.0 mph 63% 0.00 in 0 W/m2
04:52 20.0 °F 9.4 °F 30.15 in WSW 5.0 mph 6.0 mph 63% 0.00 in 0 W/m2
04:58 20.0 °F 9.4 °F 30.14 in WSW 6.0 mph 6.0 mph 63% 0.00 in 0 W/m2
05:04 20.1 °F 9.5 °F 30.14 in SSW 6.0 mph 7.0 mph 63% 0.00 in 0 W/m2
05:10 20.1 °F 9.5 °F 30.14 in WNW 7.0 mph 7.0 mph 63% 0.00 in 0 W/m2
05:15 20.0 °F 9.4 °F 30.14 in SSW 7.0 mph 7.0 mph 63% 0.00 in 0 W/m2
05:22 20.0 °F 9.4 °F 30.14 in West 6.0 mph 6.0 mph 63% 0.00 in 0 W/m2
05:28 19.9 °F 9.7 °F 30.14 in WNW 7.0 mph 7.0 mph 64% 0.00 in 0 W/m2
05:33 19.8 °F 9.2 °F 30.14 in WSW 6.0 mph 8.0 mph 63% 0.00 in 0 W/m2
05:39 19.6 °F 9.4 °F 30.14 in WNW 5.0 mph 5.0 mph 64% 0.00 in 0 W/m2
05:46 19.5 °F 9.3 °F 30.14 in SW 6.0 mph 8.0 mph 64% 0.00 in 0 W/m2
05:52 19.2 °F 9.4 °F 30.14 in West 5.0 mph 5.0 mph 65% 0.00 in 0 W/m2
05:58 19.1 °F 9.3 °F 30.14 in SW 5.0 mph 9.0 mph 65% 0.00 in 0 W/m2
06:03 19.1 °F 9.3 °F 30.14 in WSW 6.0 mph 10.0 mph 65% 0.00 in 0 W/m2
06:09 18.8 °F 9.0 °F 30.14 in SW 5.0 mph 5.0 mph 65% 0.00 in 0 W/m2
06:15 18.8 °F 9.0 °F 30.14 in SW 6.0 mph 8.0 mph 65% 0.00 in 0 W/m2
06:22 18.9 °F 9.1 °F 30.14 in SW 6.0 mph 6.0 mph 65% 0.00 in 0 W/m2
06:28 18.7 °F 9.2 °F 30.14 in WSW 6.0 mph 6.0 mph 66% 0.00 in 0 W/m2
06:33 18.6 °F 9.1 °F 30.14 in SSW 5.0 mph 8.0 mph 66% 0.00 in 0 W/m2
06:39 18.6 °F 9.1 °F 30.14 in WSW 5.0 mph 5.0 mph 66% 0.00 in 0 W/m2
06:46 18.6 °F 9.1 °F 30.14 in West 5.0 mph 9.0 mph 66% 0.00 in 0 W/m2
06:52 18.6 °F 9.1 °F 30.14 in SW 6.0 mph 6.0 mph 66% 0.00 in 0 W/m2
06:58 18.5 °F 9.0 °F 30.14 in WSW 5.0 mph 16.0 mph 66% 0.00 in 0 W/m2
07:04 18.4 °F 8.9 °F 30.14 in West 5.0 mph 7.0 mph 66% 0.00 in 0 W/m2
07:09 18.3 °F 8.8 °F 30.15 in SW 5.0 mph 9.0 mph 66% 0.00 in 0 W/m2
07:15 18.5 °F 8.7 °F 30.15 in SSW 5.0 mph 10.0 mph 65% 0.00 in 0 W/m2
07:22 18.5 °F 8.7 °F 30.16 in SSW 7.0 mph 7.0 mph 65% 0.00 in 7 W/m2
07:28 18.3 °F 8.5 °F 30.16 in West 5.0 mph 9.0 mph 65% 0.00 in 11 W/m2
07:34 18.3 °F 8.5 °F 30.16 in WSW 5.0 mph 5.0 mph 65% 0.00 in 14 W/m2
07:39 18.4 °F 8.6 °F 30.16 in WNW 6.0 mph 6.0 mph 65% 0.00 in 19 W/m2
07:45 18.5 °F 8.3 °F 30.16 in West 6.0 mph 12.0 mph 64% 0.00 in 26 W/m2
07:52 18.5 °F 8.3 °F 30.16 in SW 5.0 mph 6.0 mph 64% 0.00 in 44 W/m2
07:58 18.7 °F 8.5 °F 30.16 in West 5.0 mph 7.0 mph 64% 0.00 in 65 W/m2
08:04 19.0 °F 8.8 °F 30.16 in WSW 6.0 mph 6.0 mph 64% 0.00 in 60 W/m2
08:09 19.2 °F 8.7 °F 30.16 in West 6.0 mph 6.0 mph 63% 0.00 in 51 W/m2
08:16 19.3 °F 8.8 °F 30.16 in SW 5.0 mph 6.0 mph 63% 0.00 in 53 W/m2
08:22 19.4 °F 8.5 °F 30.16 in SW 6.0 mph 6.0 mph 62% 0.00 in 65 W/m2
08:28 19.4 °F 8.5 °F 30.16 in WSW 6.0 mph 7.0 mph 62% 0.00 in 65 W/m2
08:33 19.5 °F 8.6 °F 30.17 in WSW 4.0 mph 8.0 mph 62% 0.00 in 109 W/m2
08:40 19.6 °F 9.0 °F 30.17 in WSW 5.0 mph 5.0 mph 63% 0.00 in 104 W/m2
08:45 19.8 °F 8.9 °F 30.17 in West 6.0 mph 7.0 mph 62% 0.00 in 114 W/m2
08:52 19.9 °F 9.0 °F 30.17 in SW 6.0 mph 6.0 mph 62% 0.00 in 93 W/m2
08:58 20.0 °F 9.1 °F 30.17 in WSW 5.0 mph 9.0 mph 62% 0.00 in 100 W/m2
09:03 20.1 °F 9.2 °F 30.18 in WSW 5.0 mph 6.0 mph 62% 0.00 in 100 W/m2
09:10 20.2 °F 9.2 °F 30.18 in SSW 5.0 mph 7.0 mph 62% 0.00 in 113 W/m2
09:15 20.2 °F 8.9 °F 30.18 in SSW 6.0 mph 8.0 mph 61% 0.00 in 123 W/m2
09:22 20.2 °F 8.9 °F 30.18 in WSW 6.0 mph 6.0 mph 61% 0.00 in 134 W/m2
09:28 20.4 °F 9.1 °F 30.18 in WSW 6.0 mph 9.0 mph 61% 0.00 in 158 W/m2
09:33 20.5 °F 8.8 °F 30.18 in SSW 5.0 mph 6.0 mph 60% 0.00 in 169 W/m2
09:40 20.6 °F 8.5 °F 30.17 in West 6.0 mph 6.0 mph 59% 0.00 in 169 W/m2
09:45 20.6 °F 8.5 °F 30.17 in SW 6.0 mph 7.0 mph 59% 0.00 in 125 W/m2
09:52 20.4 °F 8.3 °F 30.17 in SW 7.0 mph 14.0 mph 59% 0.00 in 193 W/m2
09:58 21.0 °F 8.5 °F 30.17 in SW 7.0 mph 14.0 mph 58% 0.00 in 410 W/m2
10:03 21.4 °F 8.5 °F 30.17 in SSW 7.0 mph 8.0 mph 57% 0.00 in 415 W/m2
10:09 21.8 °F 8.9 °F 30.17 in SW 6.0 mph 6.0 mph 57% 0.00 in 431 W/m2
10:16 21.9 °F 8.2 °F 30.17 in West 6.0 mph 12.0 mph 55% 0.00 in 439 W/m2
10:22 22.3 °F 9.0 °F 30.17 in WSW 5.0 mph 7.0 mph 56% 0.00 in 454 W/m2
10:28 22.1 °F 8.0 °F 30.17 in WSW 6.0 mph 12.0 mph 54% 0.00 in 464 W/m2
10:34 22.7 °F 8.9 °F 30.17 in SW 6.0 mph 8.0 mph 55% 0.00 in 471 W/m2
10:40 22.3 °F 8.2 °F 30.17 in WSW 6.0 mph 7.0 mph 54% 0.00 in 480 W/m2
10:45 22.4 °F 8.2 °F 30.16 in West 6.0 mph 8.0 mph 54% 0.00 in 487 W/m2
10:49 22.4 °F 8.2 °F 30.16 in SSW 7.0 mph 7.0 mph 54% 0.00 in 494 W/m2
10:56 22.7 °F 8.9 °F 30.16 in WSW 7.0 mph 14.0 mph 55% 0.00 in 499 W/m2
11:02 22.6 °F 8.8 °F 30.17 in WSW 7.0 mph 7.0 mph 55% 0.00 in 515 W/m2
11:08 23.2 °F 9.0 °F 30.16 in SW 7.0 mph 8.0 mph 54% 0.00 in 524 W/m2
11:14 23.5 °F 9.3 °F 30.16 in WSW 5.0 mph 10.0 mph 54% 0.00 in 527 W/m2
11:19 24.2 °F 9.9 °F 30.16 in WSW 4.0 mph 7.0 mph 54% 0.00 in 550 W/m2
11:25 23.2 °F 9.0 °F 30.16 in WNW 5.0 mph 8.0 mph 54% 0.00 in 531 W/m2
11:32 23.4 °F 10.0 °F 30.16 in West 6.0 mph 7.0 mph 56% 0.00 in 592 W/m2
11:38 23.9 °F 9.6 °F 30.16 in West 5.0 mph 7.0 mph 54% 0.00 in 531 W/m2
11:44 23.4 °F 9.6 °F 30.16 in SW 5.0 mph 6.0 mph 55% 0.00 in 403 W/m2
11:49 23.8 °F 10.4 °F 30.16 in WNW 5.0 mph 5.0 mph 56% 0.00 in 501 W/m2
11:56 24.2 °F 9.9 °F 30.15 in SW 4.0 mph 5.0 mph 54% 0.00 in 473 W/m2
12:02 23.8 °F 10.0 °F 30.15 in WNW 5.0 mph 5.0 mph 55% 0.00 in 517 W/m2
12:08 24.2 °F 9.9 °F 30.14 in WSW 5.0 mph 14.0 mph 54% 0.00 in 441 W/m2
12:14 23.7 °F 9.5 °F 30.14 in West 6.0 mph 9.0 mph 54% 0.00 in 531 W/m2
12:19 24.0 °F 10.2 °F 30.14 in WSW 6.0 mph 7.0 mph 55% 0.00 in 531 W/m2
12:26 24.7 °F 10.0 °F 30.13 in South 5.0 mph 9.0 mph 53% 0.00 in 427 W/m2
12:32 23.8 °F 9.6 °F 30.13 in WSW 5.0 mph 6.0 mph 54% 0.00 in 366 W/m2
12:38 23.8 °F 9.6 °F 30.13 in WSW 5.0 mph 10.0 mph 54% 0.00 in 383 W/m2
12:43 23.6 °F 8.9 °F 30.13 in West 5.0 mph 6.0 mph 53% 0.00 in 473 W/m2
12:49 23.5 °F 9.3 °F 30.13 in WSW 6.0 mph 6.0 mph 54% 0.00 in 399 W/m2
12:56 23.9 °F 9.6 °F 30.12 in WSW 5.0 mph 7.0 mph 54% 0.00 in 366 W/m2
13:02 23.4 °F 8.8 °F 30.12 in WSW 6.0 mph 7.0 mph 53% 0.00 in 334 W/m2
13:08 23.4 °F 8.8 °F 30.12 in SW 7.0 mph 7.0 mph 53% 0.00 in 309 W/m2
13:14 23.7 °F 9.5 °F 30.11 in West 5.0 mph 6.0 mph 54% 0.00 in 276 W/m2
13:19 23.4 °F 8.8 °F 30.11 in WSW 5.0 mph 5.0 mph 53% 0.00 in 237 W/m2
13:25 23.5 °F 8.4 °F 30.11 in WSW 4.0 mph 8.0 mph 52% 0.00 in 236 W/m2
13:32 23.2 °F 9.0 °F 30.11 in West 5.0 mph 5.0 mph 54% 0.00 in 251 W/m2
13:38 23.5 °F 9.3 °F 30.11 in WSW 5.0 mph 8.0 mph 54% 0.00 in 253 W/m2
13:43 23.6 °F 9.4 °F 30.11 in West 4.0 mph 10.0 mph 54% 0.00 in 244 W/m2
13:49 23.4 °F 8.8 °F 30.11 in NW 5.0 mph 6.0 mph 53% 0.00 in 236 W/m2
13:56 23.4 °F 8.3 °F 30.11 in West 6.0 mph 7.0 mph 52% 0.00 in 345 W/m2
14:02 24.2 °F 8.7 °F 30.11 in SW 4.0 mph 8.0 mph 51% 0.00 in 394 W/m2
14:08 23.9 °F 9.2 °F 30.11 in WSW 5.0 mph 11.0 mph 53% 0.00 in 304 W/m2
14:14 24.3 °F 8.7 °F 30.10 in SW 5.0 mph 8.0 mph 51% 0.00 in 401 W/m2
14:19 24.0 °F 8.5 °F 30.11 in SW 5.0 mph 5.0 mph 51% 0.00 in 315 W/m2
14:26 24.2 °F 9.1 °F 30.11 in WSW 5.0 mph 7.0 mph 52% 0.00 in 287 W/m2
14:32 24.0 °F 8.0 °F 30.11 in West 5.0 mph 5.0 mph 50% 0.00 in 227 W/m2
14:38 24.1 °F 8.1 °F 30.11 in WSW 5.0 mph 5.0 mph 50% 0.00 in 315 W/m2
14:43 24.2 °F 7.8 °F 30.11 in WSW 5.0 mph 8.0 mph 49% 0.00 in 285 W/m2
14:49 24.2 °F 7.8 °F 30.11 in West 5.0 mph 5.0 mph 49% 0.00 in 225 W/m2
14:56 24.0 °F 7.6 °F 30.11 in WNW 4.0 mph 6.0 mph 49% 0.00 in 209 W/m2
15:02 23.7 °F 7.3 °F 30.11 in SSW 4.0 mph 6.0 mph 49% 0.00 in 146 W/m2
15:08 23.3 °F 6.9 °F 30.11 in West 6.0 mph 7.0 mph 49% 0.00 in 137 W/m2
15:13 23.3 °F 7.4 °F 30.11 in WNW 5.0 mph 7.0 mph 50% 0.00 in 146 W/m2
15:19 23.6 °F 6.8 °F 30.11 in WSW 5.0 mph 7.0 mph 48% 0.00 in 197 W/m2
15:26 23.9 °F 7.0 °F 30.11 in West 5.0 mph 9.0 mph 48% 0.00 in 278 W/m2
15:32 24.0 °F 6.7 °F 30.11 in West 5.0 mph 12.0 mph 47% 0.00 in 216 W/m2
15:38 23.9 °F 6.6 °F 30.11 in SW 6.0 mph 12.0 mph 47% 0.00 in 174 W/m2
15:43 23.8 °F 6.9 °F 30.11 in West 5.0 mph 7.0 mph 48% 0.00 in 130 W/m2
15:50 23.4 °F 6.1 °F 30.12 in WNW 5.0 mph 6.0 mph 47% 0.00 in 109 W/m2
15:55 23.3 °F 6.9 °F 30.11 in SW 5.0 mph 12.0 mph 49% 0.00 in 162 W/m2
16:02 23.4 °F 6.1 °F 30.12 in West 5.0 mph 5.0 mph 47% 0.00 in 118 W/m2
16:08 23.1 °F 6.3 °F 30.12 in West 5.0 mph 6.0 mph 48% 0.00 in 86 W/m2
16:13 23.0 °F 6.7 °F 30.12 in West 4.0 mph 5.0 mph 49% 0.00 in 74 W/m2
16:20 22.9 °F 7.0 °F 30.12 in SW 3.0 mph 6.0 mph 50% 0.00 in 69 W/m2
16:25 22.8 °F 6.9 °F 30.13 in WSW 3.0 mph 6.0 mph 50% 0.00 in 60 W/m2
16:32 22.6 °F 6.7 °F 30.13 in West 5.0 mph 8.0 mph 50% 0.00 in 47 W/m2
16:38 22.4 °F 7.0 °F 30.13 in West 5.0 mph 8.0 mph 51% 0.00 in 42 W/m2
16:44 22.3 °F 6.9 °F 30.13 in West 5.0 mph 6.0 mph 51% 0.00 in 39 W/m2
16:49 22.1 °F 6.7 °F 30.12 in West 5.0 mph 7.0 mph 51% 0.00 in 30 W/m2
16:55 21.9 °F 6.9 °F 30.12 in SW 5.0 mph 7.0 mph 52% 0.00 in 26 W/m2
17:02 21.7 °F 6.8 °F 30.12 in West 4.0 mph 7.0 mph 52% 0.00 in 23 W/m2
17:08 21.5 °F 6.6 °F 30.13 in WSW 4.0 mph 11.0 mph 52% 0.00 in 16 W/m2
17:13 21.4 °F 6.5 °F 30.13 in West 5.0 mph 5.0 mph 52% 0.00 in 11 W/m2
17:20 21.2 °F 6.7 °F 30.13 in West 4.0 mph 4.0 mph 53% 0.00 in 5 W/m2
17:25 21.0 °F 6.5 °F 30.13 in West 4.0 mph 7.0 mph 53% 0.00 in 0 W/m2
17:32 20.8 °F 6.7 °F 30.13 in SW 4.0 mph 4.0 mph 54% 0.00 in 0 W/m2
17:38 20.6 °F 6.6 °F 30.13 in WSW 4.0 mph 8.0 mph 54% 0.00 in 0 W/m2
17:44 20.5 °F 6.5 °F 30.13 in WSW 4.0 mph 4.0 mph 54% 0.00 in 0 W/m2
17:50 20.4 °F 6.4 °F 30.14 in WSW 4.0 mph 4.0 mph 54% 0.00 in 0 W/m2
17:55 20.2 °F 6.2 °F 30.14 in West 3.0 mph 5.0 mph 54% 0.00 in 0 W/m2
18:02 20.2 °F 6.2 °F 30.14 in WSW 3.0 mph 3.0 mph 54% 0.00 in 0 W/m2
18:08 20.0 °F 6.0 °F 30.14 in SW 3.0 mph 5.0 mph 54% 0.00 in 0 W/m2
18:13 19.8 °F 6.2 °F 30.14 in West 3.0 mph 3.0 mph 55% 0.00 in 0 W/m2
18:19 19.6 °F 6.0 °F 30.14 in WSW 2.0 mph 2.0 mph 55% 0.00 in 0 W/m2
18:26 19.5 °F 6.3 °F 30.14 in WSW 2.0 mph 6.0 mph 56% 0.00 in 0 W/m2
18:32 19.5 °F 6.3 °F 30.14 in WSW 3.0 mph 3.0 mph 56% 0.00 in 0 W/m2
18:38 19.3 °F 6.1 °F 30.15 in SW 3.0 mph 6.0 mph 56% 0.00 in 0 W/m2
18:43 19.3 °F 6.5 °F 30.15 in WSW 3.0 mph 3.0 mph 57% 0.00 in 0 W/m2
18:50 19.3 °F 6.5 °F 30.15 in WSW 4.0 mph 4.0 mph 57% 0.00 in 0 W/m2
18:56 19.3 °F 6.5 °F 30.16 in West 4.0 mph 7.0 mph 57% 0.00 in 0 W/m2
19:02 19.1 °F 6.7 °F 30.16 in West 4.0 mph 4.0 mph 58% 0.00 in 0 W/m2
19:08 18.9 °F 6.5 °F 30.16 in WSW 4.0 mph 6.0 mph 58% 0.00 in 0 W/m2
19:14 18.9 °F 6.5 °F 30.16 in West 4.0 mph 10.0 mph 58% 0.00 in 0 W/m2
19:19 18.8 °F 6.8 °F 30.16 in West 4.0 mph 4.0 mph 59% 0.00 in 0 W/m2
19:25 18.9 °F 6.9 °F 30.16 in WSW 4.0 mph 12.0 mph 59% 0.00 in 0 W/m2
19:32 18.8 °F 6.8 °F 30.16 in West 5.0 mph 5.0 mph 59% 0.00 in 0 W/m2
19:38 18.7 °F 7.1 °F 30.16 in West 4.0 mph 5.0 mph 60% 0.00 in 0 W/m2
19:43 18.5 °F 6.9 °F 30.16 in West 4.0 mph 5.0 mph 60% 0.00 in 0 W/m2
19:50 18.5 °F 6.9 °F 30.16 in West 4.0 mph 4.0 mph 60% 0.00 in 0 W/m2
19:56 18.5 °F 6.9 °F 30.16 in WSW 5.0 mph 7.0 mph 60% 0.00 in 0 W/m2
20:02 18.5 °F 6.9 °F 30.16 in West 5.0 mph 11.0 mph 60% 0.00 in 0 W/m2
20:08 18.6 °F 7.0 °F 30.16 in WSW 5.0 mph 11.0 mph 60% 0.00 in 0 W/m2
20:14 18.5 °F 7.3 °F 30.16 in West 6.0 mph 6.0 mph 61% 0.00 in 0 W/m2
20:19 18.3 °F 7.1 °F 30.16 in West 5.0 mph 5.0 mph 61% 0.00 in 0 W/m2
20:26 18.3 °F 7.1 °F 30.17 in WSW 5.0 mph 7.0 mph 61% 0.00 in 0 W/m2
20:32 18.4 °F 7.2 °F 30.16 in West 6.0 mph 9.0 mph 61% 0.00 in 0 W/m2
20:38 18.3 °F 7.1 °F 30.16 in West 6.0 mph 11.0 mph 61% 0.00 in 0 W/m2
20:43 18.2 °F 7.0 °F 30.17 in West 5.0 mph 7.0 mph 61% 0.00 in 0 W/m2
20:49 18.2 °F 7.0 °F 30.17 in WSW 5.0 mph 5.0 mph 61% 0.00 in 0 W/m2
20:56 18.2 °F 7.0 °F 30.17 in West 6.0 mph 6.0 mph 61% 0.00 in 0 W/m2
21:02 18.1 °F 6.9 °F 30.17 in West 5.0 mph 7.0 mph 61% 0.00 in 0 W/m2
21:08 18.1 °F 6.9 °F 30.17 in West 5.0 mph 7.0 mph 61% 0.00 in 0 W/m2
21:14 18.1 °F 6.9 °F 30.17 in SW 5.0 mph 7.0 mph 61% 0.00 in 0 W/m2
21:20 18.2 °F 7.7 °F 30.18 in SW 5.0 mph 10.0 mph 63% 0.00 in 0 W/m2
21:25 18.2 °F 7.7 °F 30.17 in West 5.0 mph 10.0 mph 63% 0.00 in 0 W/m2
21:32 18.3 °F 7.8 °F 30.18 in West 5.0 mph 8.0 mph 63% 0.00 in 0 W/m2
21:38 18.3 °F 8.1 °F 30.18 in West 6.0 mph 13.0 mph 64% 0.00 in 0 W/m2
21:44 18.2 °F 8.1 °F 30.18 in WSW 6.0 mph 9.0 mph 64% 0.00 in 0 W/m2
21:50 18.3 °F 8.5 °F 30.18 in WNW 6.0 mph 6.0 mph 65% 0.00 in 0 W/m2
21:55 18.4 °F 8.6 °F 30.18 in West 6.0 mph 10.0 mph 65% 0.00 in 0 W/m2
22:02 18.4 °F 9.3 °F 30.19 in West 6.0 mph 6.0 mph 67% 0.00 in 0 W/m2
22:08 18.1 °F 10.0 °F 30.19 in West 6.0 mph 6.0 mph 70% 0.00 in 0 W/m2
22:13 17.9 °F 10.1 °F 30.19 in NW 6.0 mph 6.0 mph 71% 0.00 in 0 W/m2
22:19 18.0 °F 10.2 °F 30.19 in WNW 6.0 mph 7.0 mph 71% 0.00 in 0 W/m2
22:26 18.1 °F 10.3 °F 30.19 in West 5.0 mph 8.0 mph 71% 0.00 in 0 W/m2
22:32 17.9 °F 11.0 °F 30.19 in West 5.0 mph 5.0 mph 74% 0.00 in 0 W/m2
22:38 17.9 °F 10.7 °F 30.19 in West 4.0 mph 5.0 mph 73% 0.00 in 0 W/m2
22:44 18.0 °F 10.2 °F 30.19 in WSW 4.0 mph 9.0 mph 71% 0.00 in 0 W/m2
22:50 18.2 °F 10.1 °F 30.19 in West 4.0 mph 7.0 mph 70% 0.00 in 0 W/m2
22:56 18.2 °F 10.1 °F 30.19 in SSW 4.0 mph 9.0 mph 70% 0.00 in 0 W/m2
23:02 18.4 °F 10.2 °F 30.19 in West 5.0 mph 7.0 mph 70% 0.00 in 0 W/m2
23:13 18.4 °F 10.6 °F 30.19 in WSW 6.0 mph 7.0 mph 71% 0.00 in 0 W/m2
23:20 18.5 °F 11.0 °F 30.19 in West 5.0 mph 5.0 mph 72% 0.00 in 0 W/m2
23:26 18.4 °F 11.2 °F 30.19 in West 5.0 mph 7.0 mph 73% 0.00 in 0 W/m2
23:32 18.3 °F 10.8 °F 30.19 in SW 4.0 mph 4.0 mph 72% 0.00 in 0 W/m2
23:38 18.5 °F 11.3 °F 30.20 in WNW 5.0 mph 5.0 mph 73% 0.00 in 0 W/m2
23:43 18.4 °F 11.8 °F 30.20 in WNW 5.0 mph 6.0 mph 75% 0.00 in 0 W/m2
23:49 18.2 °F 12.2 °F 30.19 in West 5.0 mph 14.0 mph 77% 0.00 in 0 W/m2
23:56 18.2 °F 12.8 °F 30.19 in WNW 6.0 mph 14.0 mph 79% 0.00 in 0 W/m2
Country Meadow, Clay, NY, USA
Compliments of Weather Underground - 2 mb